TIMESTAMP,CO2_1_1_1,H2O_1_1_1,TAU_1_1_1,TAU_SSITC_TEST_1_1_1,H_1_1_1,H_SSITC_TEST_1_1_1,LE_1_1_1,LE_SSITC_TEST_1_1_1,FC_1_1_1,FC_SSITC_TEST_1_1_1,WD_0_0_1,WS_0_0_1,WS_MAX_0_0_1,U_SIGMA_0_0_1,V_SIGMA_0_0_1,W_SIGMA_0_0_1,USTAR_0_0_1,MO_LENGTH_0_0_1,ZL_0_0_1,FETCH_MAX_0_0_1,FETCH_70_0_0_1,FETCH_80_0_0_1,FETCH_90_0_0_1,PA_0_0_1,RH_0_0_1,TA_0_0_1,VPD_0_0_1,T_SONIC_0_0_1,T_SONIC_SIGMA_0_0_1
[yyyymmddHHMMSS],[mmolCO2 mol-1],[mmolH2O mol-1],[kg m-1 s-2],[#],[W m-2],[#],[W m-2],[#],[umolCO2 m-2 s-1],[#],[Decimal degrees],[m s-1],[m s-1],[m s-1],[m s-1],[m s-1],[m s-1],[m],[#],[m],[m],[m],[m],[kPa],[%],[deg C],[hPa],[deg C],[deg C]
20220615003000,411.71570774684602,28.141870704394652,0.68597354225727103,0,-16.994828270430393,0,55.446369779946771,0,-2.3959493459565726,0,155.66416788779057,3.3509831736865618,9.1216145753483460,1.5903876637993286,1.1635049767156957,0.97252557292741815,0.80131584413018631,2508.9732667946409,7.5728188304985825E-003,107.24500152243040,196.07806682192194,234.65536694880399,293.76067420109865,92.633774088831160,79.104827586206895,25.718965517241372,6.8878197253690541,27.504750171795422,6.9860602641970582E-002
20220615010000,413.34155116612720,28.115561919133928,0.45751125857221608,0,-16.149184113104763,0,29.418950658049681,0,-0.18673342888693542,2,155.72696901254352,3.6184282120838751,9.2368589701845334,1.3507260817948665,1.2148570338297455,0.93404669242582850,0.65392345502025906,1435.0200788814241,1.3240232857794023E-002,94.141597208008122,172.12086461869777,205.98471466636445,257.86841972684988,92.643191068954195,80.997000000000000,25.306666666666672,6.1126564470541647,27.139080899232169,0.17259957838823059
20220615013000,415.60775289813631,28.023162292716663,0.57845835194405826,0,-34.928944682982348,0,5.3112772365886967,0,5.8304840102175737,0,154.06305641414011,3.4393212221242777,9.3019027332774069,1.4147949754136075,1.1857966277406440,0.95163362676596497,0.73450965149504122,940.33175798857951,2.0205634701354794E-002,101.78342984842222,186.09257192289010,222.70527988564572,278.80058324694164,92.660501480902781,83.543333333333337,24.735000000000014,5.1163275521780767,26.621790991889043,0.17639338110957489
20220615020000,418.26394088781620,27.884738975742884,0.38579904726626651,0,-42.852670069438410,0,-7.3889263478850191,1,7.2899785086261755,0,152.30334529801172,3.3007090936010974,8.6378155191264092,1.2476599838379134,1.0431127733033441,0.83967623154391335,0.59922243111415363,416.13744948906731,4.5657991183749892E-002,95.595150588919807,174.77842378607789,209.16513423963630,261.84992763027037,92.658128658203140,86.239999999999995,24.120999999999981,4.1235975572349206,26.007912517971477,0.21813010092063326
20220615023000,421.24736980256137,27.729186034301947,0.55435428714543633,0,-35.509735294921590,0,-7.6324110011095003,0,8.6416678022013151,0,153.24879065874586,3.5437049967202268,8.3402659770817955,1.3622603142285763,1.0732150595832846,0.90425460781599887,0.71756536165431206,862.40150952276122,2.2031501325309934E-002,104.06662938859931,190.26698887147853,227.70099081214090,285.05462051428952,92.669600562934022,88.636666666666670,23.574000000000012,3.2952109566167520,25.457130796644378,0.14929912360351083
20220615030000,423.77536235661125,27.734313965588829,0.54206137042180269,0,-43.292579786721610,0,-15.062667294832568,0,11.123261529763814,0,163.03832481061528,3.3199991915001661,8.3982113070196345,1.4108515808182673,1.1377387565557318,0.94436120127647805,0.70911180358225556,682.79403899973590,2.7826839302572397E-002,99.567169845585553,182.04054179783040,217.85603472888360,272.72990374303902,92.695938927083333,90.269999999999996,23.278999999999996,2.7718135441690221,25.156428444756443,0.12886034796167592
20220615033000,426.57563951224495,27.959004295384581,0.48518030789657357,0,-51.805056875201210,0,-17.729841933482799,0,11.414112014081836,0,161.88828682561720,3.0154930046716144,7.6788216661876447,1.2719721932906916,1.0387854861924644,0.83711242193140545,0.67063173804290377,482.82149307579243,3.9352017821247684E-002,104.86127956791094,191.71986283993596,229.43970988319526,287.23129046733891,92.734848953848143,91.683333333333337,23.162333333333322,2.3525564309881428,25.103532020971159,0.14385916140977381
20220615040000,429.93113144228039,28.018051342694733,0.27278953198950462,0,-40.498644183019671,0,-11.543255406417614,0,9.4195382609219678,0,162.75452756887387,2.4441077582283102,7.4353397396632932,1.0125996241325697,0.88001386159044037,0.69542764225743581,0.50274395524954785,260.26946366150884,7.3001264661267690E-002,96.589702056255689,176.59678106428950,211.34124348672660,264.57415818111031,92.768386892795149,92.106666666666669,23.127000000000010,2.2280441316420321,25.091026191711421,0.14842684010886845
20220615043000,432.97498123400732,27.919489559005029,0.19606603107610018,0,-37.685486903854049,0,-7.2534479582034663,0,8.9319662629417280,0,169.65912504470151,2.3978999946618056,6.3578213900959462,0.89740123152950868,0.87072398853153710,0.60890894950649999,0.42617282055607369,170.40881510837204,0.11149657949277382,94.119933821359851,172.08125703872190,205.93731450905045,257.80908035459998,92.796339399956608,91.620000000000005,23.161333333333346,2.3703284495221442,25.096734994676410,0.14309137240260850
20220615050000,436.08244705761155,27.795440418400119,0.20360549149169144,0,-30.876437468513590,0,-6.0911859752183952,0,8.3054662827869539,0,178.85781051349628,2.1105213177891584,7.1573497431198234,0.99331555935717730,0.89126404851536989,0.57404297176813701,0.43425158909143557,220.07371973402266,8.6334706492729230E-002,100.15958343760400,183.12366278466456,219.15225391716410,274.35261635180177,92.817845758798342,91.063333333333333,23.192333333333352,2.5325238233790879,25.099408255393428,0.17934107664572133
20220615053000,440.59414647121048,27.666819608923650,3.2446280437790347E-002,1,-16.828346831466938,1,-2.9625905724650772,1,3.3132709139259791,1,175.54354896172489,1.4148292536512370,4.2332237813673608,0.55598750852503998,0.51429601606158326,0.35918916955597729,0.17324168029878431,25.639410221233405,0.74104668695791820,99.636503031820524,862.00000000000000,1551.0000000000000,4048.0000000000000,92.827949851345494,92.483333333333334,22.861666666666679,2.0879317275828635,24.758884924994618,0.18868607437189946
20220615060000,443.01880626147795,27.659730896926799,2.5497876990667197E-002,0,-7.3453245134040968,0,-1.5476972342971005,1,1.3156887953674139,1,183.12207314771732,1.3383213989578751,2.9390585012200452,0.46028708405249613,0.35086951817153045,0.20162047612044040,0.15351192525447704,40.875300619219360,0.46482838565513318,112.03849159034100,1014.0000000000000,1848.0000000000000,4933.0000000000000,92.844446002387159,93.556666666666672,22.670000000000016,1.7691156253794180,24.580843100653738,0.18429662066704505
20220615063000,446.75033901049460,27.483417047277420,2.2074348967045531E-002,2,-22.762534729797515,1,-16.904869844281738,1,5.3633635632610739,1,154.25453979354626,1.7826759082780570,5.9325773480126145,0.97642612028510845,0.78182303567513156,0.30867171991379411,0.14276333674926051,10.607713546638879,1.7911494231497485,220.75160080150218,1856.0000000000000,3314.0000000000000,8526.0000000000000,92.833366220269099,94.723333333333329,22.358666666666693,1.4216542693992187,24.203660596211762,0.37233371803679205
20220615070000,447.99487756436525,27.520587748111566,1.8565041962968529E-002,1,-7.5947087976564358,1,-2.8939984410328101,0,1.5509016018822288,0,213.46352129641275,1.4636057782877241,3.2641066657226254,0.83137415730874753,0.39432910931923115,0.15866624247374944,0.13094198641644975,24.531825853855143,0.77450411205385983,179.44668134053970,1672.0000000000000,3075.0000000000000,8329.0000000000000,92.835865821235075,94.376666666666665,22.441666666666663,1.5227169070216997,24.520696021755953,0.48158381121626626
20220615073000,447.99389143966994,27.132107390660359,4.6645884793286574E-002,1,-18.379420734813358,1,-1.1723327813758193,1,3.4514257050397545,1,211.94756074767434,1.8480058051857720,3.6128697899896447,0.53235192057295777,0.48161789652084375,0.23723377487815867,0.20770467395894196,40.460287933412907,0.46959626266795357,112.58245114729448,205.83662702842119,246.33387114492993,308.38077563292654,92.849439053602438,90.236666666666665,22.949333333333357,2.7264300749575203,24.868794509887664,0.33166883879718839
20220615080000,451.83618102406035,26.903204239462969,4.1732429475391991E-002,1,6.0686685529069786,2,0.19787000204723817,2,-2.9015072384696290,2,195.36137305699043,1.5415845860496757,2.6604710148346959,0.40625625462909948,0.46457767127929123,0.18294263520226334,0.19630383792921480,-103.46294981434325,-0.18364061757464020,104.64591528531788,383.00000000000000,547.00000000000000,958.00000000000000,92.876597893663188,91.483333333333334,22.588000000000022,2.3267753591908789,24.444327618069110,0.36772704801769696
20220615083000,459.70609672459045,26.707613432461017,1.6732330008371519E-002,0,-8.3369917314948569,2,-0.69786363966396503,2,-0.32635493048541730,2,187.94407904109659,1.7296355564005292,3.2518131785102184,0.44323746645736856,0.40289259363508939,0.23324905834624754,0.12416159327729487,19.059972783544119,0.99685346961272170,272.11412590305179,2607.0000000000000,4832.0000000000000,-9999.,92.905725041870525,93.893333333333331,22.045666666666648,1.6142228665403446,23.884132293380503,0.44304289212258663
20220615090000,458.76163768933145,26.781152362430927,3.6170773652636358E-002,1,6.9342801627159849,2,-10.097235101492357,1,-3.0222155787198868,2,221.39784659757538,1.8809669353053744,3.5189327719418459,0.41688141857114536,0.48715415878162960,0.18627556620272126,0.18255638319517611,-72.835275001511476,-0.26086261086548673,145.79758942049048,501.00000000000000,705.00000000000000,1201.0000000000000,92.898689666666669,94.250000000000000,22.027333333333331,1.5182448396863948,23.992513490464944,0.35409652556379467
20220615093000,455.89634593219876,26.461904717394688,0.14160973955540979,1,-15.241435940357098,1,-1.9307013590659492,1,5.5959762325321547,1,254.64786082128941,2.1185070719467554,3.5029756394628464,0.45274868118495676,0.78966208038505326,0.25623103672119213,0.36145166467890183,257.16754408046967,7.3881795885000004E-002,164.88824523172769,301.46830069216890,360.78055985017625,451.65444915376901,92.887338960503470,90.939999999999998,22.415666666666652,2.4494430685879709,24.276852856106245,0.32186057417856795
20220615100000,466.36752857295386,25.994726774398814,0.71338139712626236,1,149.77741990513755,2,42.530130553732754,2,-85.631560405641139,2,219.51182406341866,1.7149310236398052,5.3904207731220222,0.68417969180245863,1.7493442331362181,0.50683798863286345,0.81032189886747108,-294.97670545402462,-6.4411865915837072E-002,182.25759427184175,333.22501040724546,398.78523060228923,499.23178713712417,92.950321836588529,91.803333333333327,21.978999999999985,2.1579007086173760,23.659478217230799,0.52057383778111510
20220615103000,464.13889756445224,26.018741256936043,0.14673946994118550,1,27.378803760075886,2,0.58415460294794774,2,-19.299518896783216,2,242.46248969598480,2.8485754554512144,4.9883551513617661,0.51954005902630518,0.68913109891298208,0.34005334019410771,0.36743132953529428,-150.52817704100633,-0.12622221549141655,133.21655886624055,243.56235684977830,291.48193445525351,364.90079343336384,93.022182861640147,91.413333333333327,22.076666666666654,2.2740727100178995,23.909483073635784,0.50584338856171729
20220615110000,478.23563047960465,25.607582804113985,9.9580654233280552E-002,0,7.2231542999215606,2,-10.915238569380493,1,-8.5248642847490750,2,217.35124830724592,2.3518704066071456,5.4908581150482769,0.71040948302234685,0.77998987261629604,0.37679970679718983,0.30229236627560957,-317.87793898628485,-5.9771370295752968E-002,104.98039415106527,191.93764228758988,229.70033626038997,287.55756376453570,93.093640824513358,92.783333333333331,21.584666666666692,1.8546918160410861,23.199967489696746,0.16954495705234993
20220615113000,488.50674289179892,25.654113047818274,0.37264514493697165,1,-45.778192786153191,1,-35.628395819461950,1,17.724095038814671,1,64.514794315981760,0.95770769445767323,4.6992556755059365,0.87995247791784958,1.1206576647874043,0.37974612032886473,0.58447065972502210,362.26200120675355,5.2448227903307318E-002,176.79516958175728,323.23795592277060,386.83327711367934,484.26935963977985,93.000072802951394,96.373333333333335,20.978666666666641,0.89806450583952480,22.532825792948415,0.25460747329232875
20220615120000,484.07054642408212,25.843182108940514,9.6340062336822560E-002,1,-20.902077646155387,1,-3.4099003221962669,1,4.9337515779754231,1,10.953769604223567,1.0896824736733124,3.8358210833772648,0.58280884052088222,0.68679674135127811,0.26070102190655048,0.29728571881883564,104.37096931031370,0.18204295816693603,139.08488970018331,254.29153722235091,304.32202309031982,380.97506074412121,92.951644633897573,96.816666666666663,21.014999999999986,0.79004446778703830,22.575569941202843,0.19554092291480163
20220615123000,485.67586022089972,26.011247512507335,0.30605901326798240,1,7.0953641772388050,1,-24.189895117888042,2,-8.6912957073912480,1,97.126408414648992,1.2928692029216711,5.8936503944970875,1.0440544309387030,0.95562699149815999,0.40383470289254453,0.52985267404102032,-1741.2944797796522,-1.0911422634501379E-002,155.60232965079962,284.49068541935702,340.46269051206491,426.21888774853750,92.987772385850690,97.060000000000002,21.086000000000013,0.73284233240575758,22.685429623074015,0.13915923170115499
20220615130000,484.05439993478336,26.321513986697262,0.25315435251836610,0,9.1817240021883073,1,26.182533690390894,1,-3.0941257632018373,0,257.42453636927985,2.9520257977581670,8.0652795595619970,1.6265595015862946,0.87772328365450214,0.63437203954629939,0.48173484201613803,-1012.3798006121908,-1.8767660109882289E-002,100.46762135893202,183.68685434850832,219.82625037795259,275.19637994137940,93.118497202907989,97.200000000000003,21.278666666666652,0.70624448587168898,22.891627536349858,0.11392600880464925
20220615133000,478.43766675546618,25.708728186800403,0.29883144241604043,0,-29.062352492172003,1,-16.679601442674088,2,-10.352149027616710,2,260.13685672881496,2.3207768424560982,8.5217831835647679,1.4823092485824965,0.84805983768600546,0.51543903498829657,0.52294413605977264,409.35459522577975,4.6414527213308888E-002,126.67102756523499,231.59503804140365,277.16011033750107,346.97156912741218,93.199942555989580,96.073333333333338,21.098999999999990,0.97956642960521556,22.547609836154550,0.22771954552011098
20220615140000,470.87703063144255,25.938674525155054,0.15887737255756063,1,4.1292230964636127,1,-12.256477574884459,2,-6.6512511012831279,0,229.09434386581842,1.6312330391327210,3.5867957420659908,0.57867445179105759,0.72368473345779449,0.37963377703604306,0.38131589014948430,-1117.4305203141989,-1.7003294302949220E-002,125.65823229774726,229.74332527795286,274.94408309368930,344.19736598151871,93.245114974175351,96.193333333333328,21.231666666666683,0.95739294448371770,22.675790847778330,8.9412091468356811E-002
20220615143000,469.81907677600532,25.898436461555246,1.0185178995317461,1,-28.075125832075660,1,-292.09681614190561,2,-59.644031692524159,2,282.26498595859073,1.9215349485817221,7.2077887546101094,0.93681863800630905,2.0931700554000039,0.73144512950457541,0.96582594643755404,2668.8346450938179,7.1192121381248369E-003,156.39706278999955,285.94371106494901,342.20159110191037,428.39578494157360,93.159845374746510,96.233333333333334,21.184666666666658,0.94460544267099977,22.682063998152330,0.12623379294154591
20220615150000,449.08158630446104,24.729497560335282,9.3681758769513679E-002,1,-4.5619628829128560,2,135.22816246349970,0,14.741502889271606,2,25.296111015098631,0.73575861804804832,3.9665514342065147,0.79758255609466600,0.81017799077680064,0.36586173730796356,0.29320078219955092,458.79102875764943,4.1413189903581372E-002,104.88983581933897,191.77207277509567,229.50219184097793,287.30951046410399,92.984815841702783,90.870000000000005,21.336000000000013,2.3109686646334833,22.587444503350980,0.28344083931827896
20220615153000,437.46192467873965,24.257040913870735,2.4389037956285504E-002,0,66.181871904267979,0,232.06312073374653,0,-16.962945489795207,1,271.58260121126062,1.0157667798635033,4.1615858879885765,0.72315259328552162,0.42072799918167747,0.36359629931817050,0.14979561025951291,-4.2179974780292380,-4.5045071977798603,33.295663107033057,100.00000000000000,136.00000000000000,219.00000000000000,93.016940901692706,84.286666666666662,22.257333333333349,4.2075162031126458,23.285697994656061,0.32888663001871954
20220615160000,427.46709952006177,24.266619492004683,8.2382189670235875E-002,1,125.58731635993649,0,356.24582279063253,0,-12.769418363019653,0,249.96063384121578,1.3968464290835314,4.2527362333886103,0.72707790770051706,0.66705296171236417,0.50770098696446397,0.27563617305431315,-13.849824259588164,-1.3718585625262643,76.813483858997188,140.43954689840680,168.07026887662576,210.40403268990374,93.024951438151035,80.674999999999997,22.987000000000023,5.4088599943188953,24.111101620144268,0.53846325977771226
20220615163000,429.82066646318907,24.055020894930490,0.13620035252462626,1,111.43972409706926,0,194.48319710888225,0,-18.739195217027522,0,281.37961593699924,1.4836118368820423,4.5975391623356296,0.68988736949393359,0.74084303243174654,0.49915556844684406,0.35486292516103662,-33.291096048129603,-0.57072317392408234,95.304776241786840,174.24752686937074,208.52978622330235,261.05454730695857,92.969909159168282,77.071666666666673,23.588999999999999,6.6549126675886150,24.523344758963049,0.39684138734630170
20220615170000,428.97130777678200,24.549110451982159,0.14430639792241939,1,103.54456915493695,0,234.78992170070936,1,-21.924264473170670,1,140.03840937242481,0.26747464668302190,4.3358518054486490,0.87681317979974360,0.88472237703308287,0.43685658769350189,0.36566941090907884,-39.210653001838914,-0.48456219280788138,108.60621892103671,198.56680636459674,237.63375254843731,297.48925954374721,92.980492101345490,75.756666666666661,24.215666666666664,7.3066037453799257,25.223118014017757,0.45777149063300387
20220615173000,429.57168043386503,24.389370578589418,0.16416981921089624,1,61.529230014967581,0,271.71151408527544,1,-23.060865236028029,0,133.75401372650754,1.4035345573414355,5.1244655651468047,0.88875365493143876,0.90721664249592149,0.50090021730606360,0.39035764461485373,-80.290878638694295,-0.23663958250474790,102.57087841046393,187.53227903814010,224.42824159627204,280.95752685457148,93.010808642144099,72.536333333333332,24.838333333333310,8.5911917596724656,25.864093905978677,0.39362443399945912
20220615180000,427.61835213872655,22.408593591694419,0.23860073496251252,0,7.0967482231511561,0,393.88403524037909,0,-8.5250697661092900,0,193.36388145129013,2.6061157560442352,7.6384299895817227,1.1796269256064689,1.0057565187247184,0.75273278654161546,0.47081334014289855,-1220.9077898913852,-1.5562190820070274E-002,86.024318612277895,157.27989047247743,188.22385905102499,235.63393607624232,93.006325972005214,64.759000000000000,25.319666666666649,11.344664527574306,26.209138957553364,0.29428888232055533
20220615183000,423.77515742586678,21.664059502747467,0.41969325761749016,0,-10.468571392860424,2,194.39857316119472,0,-10.371683451474787,0,185.14936256805512,2.7814705315639858,7.6335578438277665,1.1797333467248781,1.2093935818807788,0.83933917556793658,0.62431471909591219,1928.4006570254101,9.8527242929422228E-003,98.816112393659097,180.66736923822035,216.21269788819572,270.67264102394125,92.927719076515871,63.571333333333328,25.048666666666691,11.539408612681198,25.899806309801079,0.16692876064813061
20220615190000,419.97859909703419,21.304342482106868,0.33423744467576533,0,-14.464591273109962,2,194.21893285037783,0,-13.360521079248409,0,193.08853146216777,2.1963611011365556,6.2894773205174230,1.0161597617448348,1.1677103298505862,0.69025686826102584,0.55707171468739569,991.12706158721062,1.9170095072949599E-002,105.48123273030689,192.85333494471570,230.79618649980165,288.92943822595913,92.885007565321189,63.124666666666670,24.878333333333330,11.562908583865031,25.773751209682928,0.17289099838689084
20220615193000,419.37989516869237,21.867604117439321,0.21944807735047570,0,-18.386446326023460,0,21.882518731458866,2,-2.5335568524842231,1,216.51220779591341,2.3572386416115663,6.4272492760062869,0.99731740795079926,0.86559861239654545,0.57949992491263558,0.45076613901527057,413.36864577829226,4.5963815093490505E-002,102.41727596577799,187.25144478026712,224.09215471566833,280.53678596157573,92.957626397802414,67.419333333333327,24.226999999999975,9.8260330587470524,25.270622003047379,0.11937426629262421
20220615200000,419.92614718960755,21.652670899875915,0.56325236849978155,1,-69.049489951299392,1,20.179687963924799,2,0.18250138113735651,2,187.82199776572085,2.1603287574996610,7.6755917830423828,1.0410065974522349,2.1740256391829771,0.73898671686895512,0.72154520203390460,451.08297348920894,4.2120853848753234E-002,122.84470129782396,224.59929328040445,268.78799059672798,336.49066868383346,92.858438728732636,69.985333333333330,23.423666666666691,8.6253320055167961,24.411179871453271,0.34929160456591457
20220615203000,421.20704890008506,22.043243001668923,0.17628759137019243,0,-0.99806494600693085,2,-13.946583087707754,2,1.9217141354625322,0,226.20809269979401,2.0877031726425095,7.4797623478029136,1.3187358345404374,0.99368018150016379,0.52542788967513432,0.40269757515524540,5429.6196108614158,3.4993243287232099E-003,101.21097633436322,185.04594432450617,221.45273396279870,277.23254438404336,92.961722885850705,76.417000000000002,22.285666666666657,6.3256505816411304,23.427932422214212,0.41413820393056117
20220615210000,427.29198723731173,23.036755075646951,0.11661186597044033,0,-31.621276122863495,1,33.781167084269320,1,4.6556338414929836,1,192.40492835165119,1.6195796114341565,4.9794369819270647,0.79130744563393951,0.92543313646615066,0.33661508018173947,0.32683493625860499,91.627721196940570,0.20736082652500154,122.29559766494577,223.59535671188169,267.58653493318360,334.98658876299140,92.950772100186128,86.900000000000006,20.902666666666676,3.2288086278322865,22.195224299638426,0.38458791797260339
20220615213000,429.26163716648972,23.529860734028677,0.33811225312657961,1,-39.437424692572165,1,21.092752319400265,1,0.32809778048979943,2,127.19881129279176,1.1215492514376197,4.3310718351156714,0.91625031848274230,1.2748062346614077,0.34330692324303347,0.55618061863900525,361.72114165654682,5.2526650538000472E-002,184.19656677510952,336.77007054678108,403.02776216832007,504.54293322068497,92.825397366753464,93.233333333333334,20.083666666666659,1.5856459571232517,21.449964012993746,0.22557034355553818
20220615220000,433.53670981418105,23.441439120464743,0.32145500021164858,1,-11.980189288862597,1,-41.863290615935725,1,9.5873851866678432,1,191.18909334155768,1.0834515967053571,5.0726019585444471,1.0150752022499279,1.5307499763044921,0.38941567876524097,0.54227706234675488,1102.5737129225990,1.7232407935462730E-002,163.19285525495408,298.36858709772685,357.07099435552772,447.01051334752407,92.700619380208352,95.186666666666667,19.666666666666686,1.0991404872455406,20.947435067070899,0.13382285816517531
20220615223000,436.24949091704156,22.918517875326991,4.5110535780789010E-002,0,-11.401960771499100,0,15.015163111274855,2,7.1415004057754041,1,170.58281910845983,0.66510256194162631,3.6116816721457976,0.76010456630295375,0.85609966453785324,0.23155220660526316,0.20305498636396782,60.809609800445259,0.31245061532792273,112.72667252284232,206.10030969997121,246.64943195728128,308.77582032418223,92.684562998263900,94.466666666666669,19.423000000000002,1.2445680755434934,20.781767232259142,0.16015256500178610